DW4678 Weather Reports


Display with metric or nautical units.
time (UTC)temp
F
wind
direction
speed
MPH
gust
MPH
rain 1hr
in
rain 24hr
in
rain mn
in
humidity
%
barometer
mb
20200407234628 47 250 20.0 0.0 0.00 0.00 0.00 76 1007.8
20200407233051 47 250 20.0 0.0 0.00 0.00 0.00 76 1007.8
20200407231509 48 252 21.0 0.0 0.00 0.00 0.00 76 1007.7
20200407224609 48 252 20.0 0.0 0.00 0.00 0.00 76 1007.8
20200407223050 48 248 22.0 0.0 0.00 0.00 0.00 76 1007.8
20200407221557 48 252 22.0 0.0 0.00 0.00 0.00 76 1007.8
20200407220040 48 250 20.0 0.0 0.00 0.00 0.00 76 1008.0
20200407214515 48 249 22.0 0.0 0.00 0.00 0.00 75 1008.1
20200407211708 49 250 22.0 0.0 0.00 0.00 0.00 75 1008.1
20200407210105 48 252 21.0 0.0 0.00 0.00 0.00 76 1008.3
20200407204609 48 243 21.0 0.0 0.00 0.00 0.00 76 1008.3
20200407203101 48 247 21.0 0.0 0.00 0.00 0.00 75 1008.5
20200407201524 49 247 21.0 0.0 0.00 0.00 0.00 73 1008.6
20200407200020 49 260 22.0 0.0 0.00 0.00 0.00 74 1008.8
20200407194548 49 245 22.0 0.0 0.00 0.00 0.00 74 1008.9
20200407191743 50 229 24.0 0.0 0.00 0.00 0.00 68 1009.2
20200407190145 50 239 21.0 0.0 0.00 0.00 0.00 70 1009.3
20200407184640 49 252 20.0 0.0 0.00 0.00 0.00 74 1009.5
20200407183139 49 234 22.0 0.0 0.00 0.00 0.00 72 1010.0
20200407181550 49 241 20.0 0.0 0.00 0.00 0.00 73 1010.4
20200407180046 49 248 22.0 0.0 0.00 0.00 0.00 72 1010.9
20200407174603 50 241 23.0 0.0 0.00 0.00 0.00 69 1011.0
20200407173033 49 243 22.0 0.0 0.00 0.00 0.00 70 1011.3
20200407171513 49 233 19.0 0.0 0.00 0.00 0.00 73 1011.4
20200407164702 48 231 15.0 0.0 0.00 0.00 0.00 74 1011.9
20200407163129 48 243 16.0 0.0 0.00 0.00 0.00 75 1012.1
20200407161555 49 249 18.0 0.0 0.00 0.00 0.00 73 1012.2
20200407160127 48 246 14.0 0.0 0.00 0.00 0.00 75 1012.5
20200407154612 48 221 14.0 0.0 0.00 0.00 0.00 74 1012.7
20200407153109 50 209 8.0 0.0 0.00 0.00 0.00 66 1012.7
20200407151559 52 203 6.0 0.0 0.00 0.00 0.00 48 1013.0
20200407150048 53 241 7.0 0.0 0.00 0.00 0.00 41 1013.1
20200407144553 53 273 6.0 0.0 0.00 0.00 0.00 42 1013.2
20200407143034 53 310 7.0 0.0 0.00 0.00 0.00 47 1013.4
20200407141526 52 302 7.0 0.0 0.00 0.00 0.00 45 1013.5
20200407140011 52 299 9.0 0.0 0.00 0.00 0.00 46 1013.6
20200407133233 51 293 10.0 0.0 0.00 0.00 0.00 49 1013.4
20200407131640 50 298 10.0 0.0 0.00 0.00 0.00 51 1013.4
20200407130229 49 310 7.0 0.0 0.00 0.00 0.00 53 1013.5
20200407124632 49 319 7.0 0.0 0.00 0.00 0.00 51 1013.6
20200407123118 48 309 7.0 0.0 0.00 0.00 0.00 51 1013.7
20200407121551 48 311 6.0 0.0 0.00 0.00 0.00 54 1013.9
20200407120025 48 301 6.0 0.0 0.00 0.00 0.00 52 1013.9
20200407113216 48 301 9.0 0.0 0.00 0.00 0.00 52 1013.9
20200407111645 48 311 7.0 0.0 0.00 0.00 0.00 50 1013.7
20200407110343 47 337 7.0 0.0 0.00 0.00 0.00 51 1013.7
20200407104634 47 314 4.0 0.0 0.00 0.00 0.00 53 1013.6
20200407103130 47 303 4.0 0.0 0.00 0.00 0.00 56 1013.4
20200407101614 47 308 5.0 0.0 0.00 0.00 0.00 56 1013.3
20200407100041 47 293 7.0 0.0 0.00 0.00 0.00 54 1013.2
20200407094523 46 290 7.0 0.0 0.00 0.00 0.00 58 1013.1
20200407090038 47 289 7.0 0.0 0.00 0.00 0.00 59 1013.0
20200407084517 47 303 8.0 0.0 0.00 0.00 0.00 61 1013.1
20200407081718 47 302 6.0 0.0 0.00 0.00 0.00 57 1013.2
20200407080217 47 306 6.0 0.0 0.00 0.00 0.00 58 1013.1
20200407074550 47 299 5.0 0.0 0.00 0.00 0.00 60 1013.1
20200407073033 47 327 5.0 0.0 0.00 0.00 0.00 56 1013.2
20200407070444 47 331 5.0 0.0 0.00 0.00 0.00 60 1013.0
20200407064713 46 294 9.0 0.0 0.00 0.00 0.00 67 1012.9
20200407063243 45 287 10.0 0.0 0.00 0.00 0.00 74 1013.1
20200407061727 45 267 11.0 0.0 0.00 0.00 0.00 76 1013.2
20200407060041 45 257 10.0 0.0 0.00 0.00 0.00 80 1013.3
20200407054620 45 286 7.0 0.0 0.00 0.00 0.00 81 1013.3
20200407053026 45 294 7.0 0.0 0.00 0.00 0.00 82 1013.4
20200407051504 45 287 8.0 0.0 0.00 0.00 0.00 84 1013.5
20200407043210 45 285 6.0 0.0 0.00 0.00 0.00 83 1013.5
20200407041620 45 282 5.0 0.0 0.00 0.00 0.00 83 1013.5
20200407040119 45 281 5.0 0.0 0.00 0.00 0.00 83 1013.5
20200407034541 45 276 8.0 0.0 0.00 0.00 0.00 83 1013.6
20200407033015 45 275 8.0 0.0 0.00 0.00 0.00 83 1013.5
20200407030140 45 262 10.0 0.0 0.00 0.00 0.00 83 1013.6
20200407024645 45 244 9.0 0.0 0.00 0.00 0.00 83 1013.7
20200407023118 45 230 9.0 0.0 0.00 0.00 0.00 83 1014.0
20200407021513 45 218 10.0 0.0 0.00 0.00 0.00 83 1013.9
20200407020003 45 241 11.0 0.0 0.00 0.00 0.00 83 1014.0
20200407014728 45 233 13.0 0.0 0.00 0.00 0.00 83 1014.0
20200407013230 45 219 12.0 0.0 0.00 0.00 0.00 83 1014.0
20200407011545 45 212 14.0 0.0 0.00 0.00 0.00 83 1014.1
20200407010049 45 211 14.0 0.0 0.00 0.00 0.00 83 1014.1
20200407001704 45 211 12.0 0.0 0.00 0.00 0.00 82 1014.0